Погода Остров Врангеля

Погода Остров Врангеля : погода сейчас, прогноз погоды и архив. Всё, что Вы хотите узнать о погоде Остров Врангеля!

Поиск расширенной информации на нашем сайте:

Другие новости

Новости СМИ2

Главная страница сайта

Новости сайта

03.07.2017

Напоминаем, что на нашем специализированном сайте Метеоцентр.Азия вы можете получить высокодетализированные автоматические прогнозы погоды по пунктам России, СНГ и мира в авиационном формате (включающие направление и скорость ветра, видимость, явления погоды, количество и форму облачности, нижнюю и верхнюю границу облачности).


Погода Остров Врангеля - сегодня

Время (UTC), дата Ветер
(°,м/с) 
Видим.   Явления Облачность Т
(°С)
Тd
(°С)
f(%) Тe
(°С)
Pmin
(гПа)
dP
(гПа)
Po
(мм)
O2
(г/м3)
Тmin Tmax R s Состояние
почвы
09 18.07.17 110 (В) 1{03}  1000 м  дымка  10/10 100 м 
[St]
+2.4 +1.9 97 +3  1004.8  1.3  752  300           
12 18.07.17 080 (В) 3{04}  1000 м  дымка  10/10 100 м 
[St]
+4 +3.4 96 +3  1005.3  0.5  752  298           
15 18.07.17 100 (В) 4{06}  2000 м  слаб. морось  10/10 100 м 
[St]
+2.9 +2.5 97 +1  1005.7  0.4  752  300           
18 18.07.17 тихо () {05}  1000 м  слаб. морось  10/10 100 м 
[St]
+2.8 +2.4 97 +3  1006.7  0.9  753  300  +2.1    0.4    влажная 
21 18.07.17 200 (Ю) 3{04}  4000 м  дымка{морось}  10/10 200 м 
[Sc]
+3.3 +2.9 97 +2  1007.5  0.9  754  300           
00 19.07.17 210 (ЮЗ) 3{04}  20000 м  {морось}  9/3 300 м средняя 
[Sc|Ac trans]
+4.2 +3.4 95 +3  1008.3  0.8  754  299           
03 19.07.17 200 (Ю) 2{04}  20000 м    9/3 300 м средняя 
[Sc|Ac trans]
+3.6 +2.5 92 +3  1008.9  0.6  755  300           
06 19.07.17 160 (Ю) 1{04}  20000 м    9/1 600 м средняя 
[Sc|Ac trans]
+3.5 +1.7 88 +4  1009.3  0.4  755  300    +4.4  0.0     
09 19.07.17 130 (ЮВ) 1{02}  20000 м    10/10 600 м 
[Sc]
+2.7 +1.7 93 +3  1009.5  0.2  755  301           
12 19.07.17 тихо () {02}  4000 м  дымка  10/10 300 м 
[Sc]
+2.3 +1.7 96 +2  1010.2  0.7  756  302           
15 19.07.17 090 (В) 2{03}  4000 м  дымка  10/10 200 м 
[Sc]
+2.6 +2.2 97 +2  1009.6  -0.6  755  301           
18 19.07.17 060 (СВ) 1{03}  20000 м    10/10 300 м 
[Sc]
+4 +3.3 95 +5  1009.4  -0.2  755  299  +2.1        сухая 
21 19.07.17 050 (СВ) 3{05}  10 км  слаб. дождь  10/8 600 м средняя 
[Sc|As op]
+5.3 +4.4 94 +4  1009.1  -0.3  755  298           
00 20.07.17 030 (СВ) 5{07}  10 км  слаб. дождь  10/8 600 м средняя 
[Sc|As op]
+7 +6 93 +5  1008.8  -0.2  755  296           
03 20.07.17 020 (С) 7{10}  20000 м  в посл. час дождь  10/8 600 м средняя 
[Sc|As op]
+8.2 +6.3 88 +6  1009.2  0.3  755  294           
06 20.07.17 010 (С) 10-13{13}  20000 м  {дождь}  9/3 300 м средняя, верхняя 
[Sc|Ac trans|Cc]
+6.2 +4.4 88 +3  1010.6  1.4  756  297    +8.5     
09 20.07.17 350 (С) 8-13{14}  20000 м    9/4 600 м средняя, верхняя 
[Sc|Ac lent|Cc]
+4 +1.5 84 +1  1012.9  2.3  758  301           
12 20.07.17 330 (СЗ) 9-15{16}  20000 м    3/0 средняя, верхняя 
[Ac trans|Ci fib]
+3.4 -0.8 74 1014.8  1.8  759  302           
15 20.07.17 280 (З) 3{15}  20000 м    4/0 средняя, верхняя 
[Ac trans|Ci fib]
+4.3 -1.3 67 +3  1017  2.2  761  302           
18 20.07.17 170 (Ю) 1{09}  20000 м    6/0 средняя 
[Ac trans]
+4.5 -0.1 72 +5  1017.7  0.8  761  302  +2.3        влажная 
21 20.07.17 110 (В) 3{07}  4000 м  дымка  8/3 100 м средняя 
[St|Ac trans]
+1.3 +0.5 94 1018.5  0.7  762  305  +1.2         
00 21.07.17 090 (В) 4{07}  20000 м    9/8 600 м средняя 
[Sc|Ac trans]
+1.2 -0.5 88 -1  1018.4  -0.1  762  306           
03 21.07.17 060 (СВ) 3{06}  20000 м    10/10 300 м 
[Sc]
+2.6 +1.5 92 +1  1016.9  -1.5  761  303           
06 21.07.17 070 (В) 3{08}  20000 м    10/10 300 м 
[Sc]
+4.6 +3.1 90 +3  1014.9  -2  759  300    +4.8       
09 21.07.17 060 (СВ) 3{07}  20000 м    10/10 300 м 
[Sc]
+4.7 +3.4 91 +4  1012.2  -2.7  757  299           
Время (UTC), дата Ветер
(°,м/с) 
Видим.   Явления Облачность Т
(°С)
Тd
(°С)
f(%) Тe
(°С)
Pmin
(гПа)
dP
(гПа)
Po
(мм)
O2
(г/м3)
Тmin Tmax R s Состояние
почвы

Для получения пояснительной информации подведите курсор к названию столбца.

ПОГОДА Остров Врангеля - архив

Всё, что Вы хотите узнать о погоде Остров Врангеля - удобно и подробно!

Выберите нужную дату (начиная с 1 января 2015* года) и нажмите кнопку "Найти".
Будут отображены архивные сводки погоды по пункту Остров Врангеля, начиная с указанной даты.


Отображать данные в формате CSV (для использования в таблицах Excel)


Внимание! Наш архив погоды предназначен исключительно для личного некоммерческого использования в познавательных целях. Если Вам необходимы официальные справки о состоянии погоды (для производственных, юридических, коммерческих и т.п. целей), обращайтесь в органы Росгидромета.

*Примечание: данная дата относится к архиву по метеостанциям СССР (Россия, СНГ, Балтия).
Архив по метеостанциям Зарубежной Европы и Азии (кроме Китая) хранится 10 дней, по другим регионам земного шара (Китай, Африка, Америка, Австралия, Океания) - 1 день.

Остров Врангеля - район местоположения метеостанции


Название, широта, долгота, высота метеостанции:
Остров Врангеля 71°ш. -178.5°д. 5 м над ур. моря [Российская Федерация]

Дополнительная информация

В oтличие oт бoльшинства пoгoдных сайтoв мы публикуем пoдрoбную метеoинфoрмацию в детальнoм прoфессиoнальнoм фoрмате.

Характеристики температуры и влажнoсти вoздуха измеряются на высoте 2 м в тени вдали oт зданий и деревьев.
Скoрoсть ветра измеряется на высoте 10 м (на урoвне рoста челoвека скoрoсть ветра ниже в 1.5-2 раза). Если метеoстанция нахoдится в гoрoде или в лесу, тo скoрoсть ветра занижена на 2-4 м/с пo сравнению с oткрытым местoм. Скoрoсть ветра над акватoриями крупных рек и oзёр, а также на вершинах хoлмoв на 2-5 м/с выше, чем в oбычных услoвиях.
Атмoсфернoе давление в разных тoчках местнoсти мoжет значительнo oтличаться oт давления на метеoстанции, в зависимoсти oт услoвий рельефа (при пoдъёме на 10 м давление пoнижается примернo на 1 мм рт.ст.).